Weather in Santa Elena

Ecuador     2°13′38″S   80°51′19″W
temp.,
°C
wind,
m/s
gust,
m/s
humid.,
%
clouds,
%
prec.,
mm/h
press.,
hPa
HPBL,
m
10 april, sat
sat1001:00+24wnw2384100 0.6 1012305
04:00+23wsw2390100 0.8 1011254
07:00+23sw2291100 2.8 1012195
10:00+24ese2287100 0.1 1014287
13:00+26ese2373100 0.3 1010608
16:00+27ene1272100 0.0 1007618
19:00+24w338498 0.0 1008126
22:00+23wsw228979 0.0 101089
11 april, sun
sun1101:00+23w338985 0.0 1010161
04:00+23sw3487100 0.0 1010288
07:00+23sw238831 0.0 1011276
10:00+26w227121 0.0 1011704
13:00+28w436360 0.0 10081055
16:00+26w436893 0.0 1007648
19:00+24wnw2377100 0.0 1008185
22:00+24sw337999 0.0 1011263
12 april, mon
mon1201:00+24ssw3483100 0.0 1010262
04:00+23ssw3485100 0.0 1009190
07:00+23sw128434 0.0 1010145
10:00+27sw326495 0.0 1011725
13:00+28wsw536285 0.0 1009948
16:00+26wsw5467100 0.0 1007644
19:00+24wsw3481100 0.0 1009241
22:00+23sw238443 0.0 1010162
13 april, tue
tue1301:00+23sw2286100 0.0 1010143
04:00+23sw238891 0.0 1009142
07:00+23sw238699 0.0 1010232
10:00+25wsw2271100 0.0 1012611
13:00+28w536355 0.0 1009869
16:00+26w4470100 0.0 1008597
19:00+23wsw238271 0.0 1009217
22:00+23sw228472 0.0 1011134
14 april, wed
wed1401:00+23wsw2388100 0.0 1010184
04:00+23sw238883 0.0 1010260
07:00+23sw228588 0.0 1011226
10:00+26w2268100 0.0 1012708
13:00+28wnw536284 0.0 1010941
16:00+26w55676 0.0 1008630
19:00+24w3481100 0.0 1010297
22:00+23wsw348398 0.0 1012269